Weather History for Willimantic, CT

Change the Weather History Date:

Friday, March 29, 2013

  Actual Average Record
Temperature  
Mean Temperature 42 °F -  
Max Temperature 55 °F 54 °F 79 °F (1989)
Min Temperature 30 °F 30 °F 7 °F (1959)
Degree Days  
Heating Degree Days 22    
Moisture  
Dew Point 29 °F    
Average Humidity 56    
Maximum Humidity 89    
Minimum Humidity 33    
Precipitation  
Precipitation 0.00 in - - ()
Sea Level Pressure  
Sea Level Pressure 30.05 in    
Wind  
Wind Speed 4 mph (NW)    
Max Wind Speed 12 mph    
Max Gust Speed 20 mph    
Visibility 10 miles    
Events      
Averages and records for this station are not official NWS values.
T = Trace of Precipitation, MM = Missing Value Source: NWS Daily Summary

Daily Weather History Graph

Daily Weather History Graph

Search for Another Location

Airport:

Trip Planner

Search our weather history database for the weather conditions in past years. The results will help you decide how hot, cold, wet, or windy it might be!

Date:

Astronomy

Mar. 29, 2013 Rise Set
Actual Time 6:36 AM EDT 7:11 PM EDT
Civil Twilight 6:08 AM EDT 7:39 PM EDT
Nautical Twilight 5:35 AM EDT 8:12 PM EDT
Astronomical Twilight 5:01 AM EDT 8:46 PM EDT
Moon 10:10 PM EDT 7:40 AM EDT
Length of Visible Light 13h 30m
Length of Day
12h 34m
Waning Gibbous, 93% of the Moon is Illuminated
Mar 29
Waning Gibbous
Apr 3
Last Quarter
Apr 10
New
Apr 18
First Quarter
Apr 25
Full

Hourly Weather History & Observations

Time (EDT) Temp. Windchill Dew Point Humidity Pressure Visibility Wind Dir Wind Speed Gust Speed Precip Events Conditions
12:52 AM 37.9 °F - 35.1 °F 89% 30.06 in 10.0 mi Calm Calm - N/A   Overcast
1:52 AM 37.9 °F - 35.1 °F 89% 30.06 in 10.0 mi Calm Calm - N/A   Overcast
2:52 AM 43.0 °F 39.5 °F 32.0 °F 65% 30.06 in 10.0 mi WNW 5.8 mph - N/A   Overcast
3:52 AM 41.0 °F 39.0 °F 32.0 °F 70% 30.06 in 10.0 mi West 3.5 mph - N/A   Partly Cloudy
4:52 AM 37.9 °F - 30.9 °F 76% 30.06 in 10.0 mi Calm Calm - N/A   Clear
5:52 AM 32.0 °F - 28.9 °F 88% 30.06 in 10.0 mi Calm Calm - N/A   Clear
6:52 AM 30.0 °F - 27.0 °F 88% 30.08 in 10.0 mi Calm Calm - N/A   Clear
7:52 AM 35.1 °F - 30.9 °F 85% 30.08 in 10.0 mi Calm Calm - N/A   Clear
8:52 AM 44.1 °F 40.8 °F 32.0 °F 63% 30.08 in 10.0 mi NW 5.8 mph 18.4 mph N/A   Clear
9:52 AM 48.0 °F - 30.9 °F 52% 30.08 in 10.0 mi NNW 10.4 mph - N/A   Clear
10:52 AM 50.0 °F - 30.9 °F 48% 30.08 in 10.0 mi West 8.1 mph - N/A   Clear
11:52 AM 53.1 °F - 30.0 °F 41% 30.07 in 10.0 mi North 8.1 mph - N/A   Clear
12:52 PM 55.0 °F - 28.0 °F 35% 30.05 in 10.0 mi West 10.4 mph - N/A   Partly Cloudy
1:52 PM 54.0 °F - 25.0 °F 33% 30.03 in 10.0 mi West 11.5 mph 19.6 mph N/A   Mostly Cloudy
2:52 PM 54.0 °F - 27.0 °F 35% 30.01 in 10.0 mi NW 6.9 mph - N/A   Overcast
3:52 PM 54.0 °F - 26.1 °F 34% 30.00 in 10.0 mi NW 8.1 mph - N/A   Overcast
4:52 PM 53.1 °F - 27.0 °F 37% 30.00 in 10.0 mi NNW 8.1 mph - N/A   Overcast
5:52 PM 53.1 °F - 26.1 °F 35% 30.01 in 10.0 mi NNW 9.2 mph - N/A   Overcast
6:52 PM 51.1 °F - 26.1 °F 38% 30.02 in 10.0 mi WNW 6.9 mph - N/A   Overcast
7:52 PM 48.9 °F - 25.0 °F 39% 30.03 in 10.0 mi WNW 9.2 mph - N/A   Scattered Clouds
8:52 PM 46.9 °F - 26.1 °F 44% 30.06 in 10.0 mi NW 6.9 mph - N/A   Overcast
9:52 PM 46.0 °F 44.8 °F 27.0 °F 47% 30.07 in 10.0 mi NW 3.5 mph - N/A   Overcast
10:52 PM 45.0 °F 41.8 °F 27.0 °F 49% 30.08 in 10.0 mi NW 5.8 mph - N/A   Overcast
11:52 PM 44.1 °F 40.8 °F 28.0 °F 53% 30.07 in 10.0 mi NW 5.8 mph - N/A   Overcast